When you browse on this site, cookies collect data to enhance your experience and personalize the content and advertising you see.
Visit our Privacy Policy to learn more. By continuing to use the site, you agree to this use of cookies and data.
EN

Hourly Weather Kalinino

Today, 26 September, Saturday

Time Temperature Precipitation Wind Pressure Humidity
00:00 +11°C° 0 mm 3 mps 755 mmHg 54%
01:00 +11°C° 0 mm 3 mps 755 mmHg 55%
02:00 +11°C° 0 mm 3 mps 756 mmHg 57%
03:00 +10°C° 0 mm 3 mps 756 mmHg 58%
04:00 +10°C° 0 mm 3 mps 756 mmHg 59%
05:00 +10°C° 0 mm 3 mps 756 mmHg 60%
06:00 +10°C° 0 mm 3 mps 755 mmHg 61%
07:00 +11°C° 0 mm 3 mps 756 mmHg 56%
08:00 +13°C° 0 mm 4 mps 756 mmHg 51%
09:00 +15°C° 0 mm 4 mps 756 mmHg 47%
10:00 +17°C° 0 mm 4 mps 756 mmHg 43%
11:00 +19°C° 0 mm 5 mps 756 mmHg 40%
12:00 +20°C° 0 mm 5 mps 756 mmHg 37%
13:00 +20°C° 0 mm 5 mps 756 mmHg 36%
14:00 +21°C° 0 mm 5 mps 756 mmHg 36%
15:00 +21°C° 0 mm 5 mps 756 mmHg 35%
16:00 +20°C° 0 mm 5 mps 756 mmHg 38%
17:00 +18°C° 0 mm 4 mps 756 mmHg 42%
18:00 +15°C° 0 mm 4 mps 756 mmHg 45%
19:00 +15°C° 0 mm 4 mps 756 mmHg 45%
20:00 +14°C° 0 mm 4 mps 757 mmHg 45%
21:00 +13°C° 0 mm 4 mps 757 mmHg 46%
22:00 +12°C° 0 mm 4 mps 757 mmHg 47%
23:00 +11°C° 0 mm 4 mps 757 mmHg 49%

Tomorrow, 27 September, Sunday

Time Temperature Precipitation Wind Pressure Humidity
00:00 +11°C° 0 mm 3 mps 758 mmHg 51%
01:00 +10°C° 0 mm 3 mps 758 mmHg 53%
02:00 +10°C° 0 mm 3 mps 758 mmHg 55%
03:00 +9°C° 0 mm 3 mps 759 mmHg 57%
04:00 +9°C° 0 mm 3 mps 759 mmHg 59%
05:00 +8°C° 0 mm 3 mps 759 mmHg 60%
06:00 +8°C° 0 mm 3 mps 759 mmHg 62%
07:00 +10°C° 0 mm 4 mps 759 mmHg 57%
08:00 +12°C° 0 mm 4 mps 759 mmHg 52%
09:00 +14°C° 0 mm 5 mps 759 mmHg 47%
10:00 +15°C° 0 mm 5 mps 759 mmHg 43%
11:00 +16°C° 0 mm 5 mps 759 mmHg 39%
12:00 +19°C° 0 mm 5 mps 759 mmHg 34%
13:00 +19°C° 0 mm 5 mps 759 mmHg 34%
14:00 +19°C° 0 mm 5 mps 759 mmHg 33%
15:00 +20°C° 0 mm 5 mps 759 mmHg 32%
16:00 +18°C° 0 mm 4 mps 759 mmHg 36%
17:00 +15°C° 0 mm 4 mps 759 mmHg 41%
18:00 +14°C° 0 mm 3 mps 759 mmHg 45%
19:00 +13°C° 0 mm 3 mps 759 mmHg 46%
20:00 +12°C° 0 mm 3 mps 759 mmHg 47%
21:00 +12°C° 0 mm 4 mps 759 mmHg 49%
22:00 +11°C° 0 mm 3 mps 760 mmHg 49%
23:00 +11°C° 0 mm 3 mps 760 mmHg 49%

Day after tomorrow, 28 September, Monday

Time Temperature Precipitation Wind Pressure Humidity
00:00 +10°C° 0 mm 3 mps 760 mmHg 49%
01:00 +10°C° 0 mm 3 mps 760 mmHg 50%
02:00 +9°C° 0 mm 3 mps 760 mmHg 50%
03:00 +9°C° 0 mm 3 mps 760 mmHg 51%
04:00 +9°C° 0 mm 3 mps 760 mmHg 52%
05:00 +8°C° 0 mm 3 mps 761 mmHg 53%
06:00 +8°C° 0 mm 3 mps 761 mmHg 54%
07:00 +10°C° 0 mm 4 mps 761 mmHg 50%
08:00 +12°C° 0 mm 4 mps 761 mmHg 46%
09:00 +13°C° 0 mm 4 mps 761 mmHg 41%
10:00 +15°C° 0 mm 5 mps 761 mmHg 38%
11:00 +16°C° 0 mm 5 mps 761 mmHg 34%
12:00 +19°C° 0 mm 5 mps 761 mmHg 31%
13:00 +19°C° 0 mm 5 mps 760 mmHg 31%
14:00 +19°C° 0 mm 5 mps 760 mmHg 31%
15:00 +19°C° 0 mm 4 mps 760 mmHg 32%
16:00 +18°C° 0 mm 4 mps 760 mmHg 35%
17:00 +16°C° 0 mm 3 mps 760 mmHg 39%
18:00 +14°C° 0 mm 3 mps 760 mmHg 43%
19:00 +13°C° 0 mm 3 mps 761 mmHg 43%
20:00 +12°C° 0 mm 3 mps 761 mmHg 44%
21:00 +13°C° 0 mm 2 mps 761 mmHg 44%
22:00 +12°C° 0 mm 3 mps 761 mmHg 45%
23:00 +11°C° 0 mm 3 mps 761 mmHg 45%

29 September, Tuesday

Time Temperature Precipitation Wind Pressure Humidity
00:00 +11°C° 0 mm 3 mps 761 mmHg 45%
01:00 +10°C° 0 mm 3 mps 761 mmHg 47%
02:00 +10°C° 0 mm 3 mps 761 mmHg 48%
03:00 +9°C° 0 mm 3 mps 761 mmHg 49%
04:00 +9°C° 0 mm 3 mps 761 mmHg 50%
05:00 +9°C° 0 mm 3 mps 761 mmHg 51%
06:00 +9°C° 0 mm 3 mps 762 mmHg 51%
07:00 +10°C° 0 mm 3 mps 761 mmHg 47%
08:00 +12°C° 0 mm 3 mps 761 mmHg 43%
09:00 +14°C° 0 mm 4 mps 761 mmHg 39%
10:00 +17°C° 0 mm 4 mps 761 mmHg 36%
11:00 +18°C° 0 mm 4 mps 761 mmHg 33%
12:00 +20°C° 0 mm 5 mps 761 mmHg 30%
13:00 +20°C° 0 mm 5 mps 760 mmHg 30%
14:00 +20°C° 0 mm 4 mps 760 mmHg 31%
15:00 +20°C° 0 mm 4 mps 760 mmHg 31%
16:00 +18°C° 0 mm 4 mps 760 mmHg 36%
17:00 +17°C° 0 mm 3 mps 759 mmHg 40%
18:00 +14°C° 0 mm 3 mps 759 mmHg 44%
19:00 +14°C° 0 mm 3 mps 759 mmHg 45%
20:00 +13°C° 0 mm 3 mps 759 mmHg 46%
21:00 +13°C° 0 mm 4 mps 759 mmHg 47%
22:00 +12°C° 0 mm 4 mps 759 mmHg 49%
23:00 +12°C° 0 mm 3 mps 759 mmHg 50%

30 September, Wednesday

Time Temperature Precipitation Wind Pressure Humidity
00:00 +11°C° 0 mm 3 mps 759 mmHg 52%
01:00 +11°C° 0 mm 3 mps 759 mmHg 54%
02:00 +11°C° 0 mm 3 mps 759 mmHg 57%
03:00 +10°C° 0 mm 3 mps 758 mmHg 59%
04:00 +10°C° 0 mm 3 mps 758 mmHg 61%
05:00 +9°C° 0 mm 3 mps 758 mmHg 63%
06:00 +9°C° 0 mm 3 mps 758 mmHg 66%
07:00 +11°C° 0 mm 4 mps 758 mmHg 61%
08:00 +12°C° 0 mm 4 mps 758 mmHg 57%
09:00 +14°C° 0 mm 4 mps 758 mmHg 53%
10:00 +16°C° 0 mm 5 mps 758 mmHg 49%
11:00 +17°C° 0 mm 5 mps 758 mmHg 44%
12:00 +20°C° 0 mm 5 mps 758 mmHg 40%
13:00 +20°C° 0 mm 5 mps 757 mmHg 40%
14:00 +20°C° 0 mm 5 mps 757 mmHg 40%
15:00 +20°C° 0 mm 5 mps 757 mmHg 40%
16:00 +19°C° 0 mm 4 mps 756 mmHg 45%
17:00 +17°C° 0 mm 4 mps 756 mmHg 49%
18:00 +16°C° 0 mm 3 mps 756 mmHg 54%
19:00 +14°C° 0 mm 3 mps 756 mmHg 55%
20:00 +13°C° 0 mm 3 mps 756 mmHg 57%
21:00 +13°C° 0 mm 4 mps 757 mmHg 58%
22:00 +13°C° 0 mm 4 mps 757 mmHg 58%
23:00 +12°C° 0 mm 4 mps 757 mmHg 58%

1 October, Thursday

Time Temperature Precipitation Wind Pressure Humidity
00:00 +12°C° 0 mm 3 mps 757 mmHg 59%
01:00 +12°C° 0 mm 3 mps 757 mmHg 62%
02:00 +11°C° 0 mm 3 mps 757 mmHg 65%
03:00 +11°C° 0 mm 3 mps 757 mmHg 68%
04:00 +10°C° 0 mm 3 mps 757 mmHg 70%
05:00 +10°C° 0 mm 3 mps 758 mmHg 73%
06:00 +10°C° 0 mm 3 mps 758 mmHg 76%
07:00 +12°C° 0 mm 3 mps 758 mmHg 70%
08:00 +13°C° 0 mm 4 mps 758 mmHg 64%
09:00 +15°C° 0 mm 4 mps 758 mmHg 59%
10:00 +17°C° 0 mm 4 mps 758 mmHg 53%
11:00 +19°C° 0 mm 5 mps 758 mmHg 47%
12:00 +20°C° 0 mm 5 mps 758 mmHg 41%
13:00 +20°C° 0 mm 5 mps 758 mmHg 42%
14:00 +21°C° 0 mm 5 mps 758 mmHg 43%
15:00 +21°C° 0 mm 5 mps 757 mmHg 43%
16:00 +19°C° 0 mm 4 mps 757 mmHg 48%
17:00 +18°C° 0 mm 4 mps 757 mmHg 53%
18:00 +17°C° 0 mm 3 mps 757 mmHg 58%
19:00 +16°C° 0 mm 3 mps 758 mmHg 60%
20:00 +16°C° 0 mm 3 mps 758 mmHg 62%
21:00 +14°C° 0 mm 3 mps 758 mmHg 64%
22:00 +14°C° 0 mm 3 mps 758 mmHg 66%
23:00 +13°C° 0 mm 3 mps 758 mmHg 68%
Show more